sat.trackr.live / text

‹ back to catalog

ENSHI XIDA SHANQUAN

NORAD 64962 · 2025-160A

PAYLOAD ACTIVE UNKNOWN

§ Identity

Operator
Country
PRC
Launch date
2025-07-29
Launch site
JSC
Launch vehicle
Mass (kg)
RCS (m²)

External: N2YO · Heavens-Above · Gunter

§ Orbital elements

Epoch: 2026-05-25T04:43:48.868896Z

Period
93.50 min
Inclination
97.3620°
Eccentricity
0.0005642
Mean motion
15.40134644 rev/d
Perigee alt
441.9 km
Apogee alt
449.6 km
Semi-major
6,823.8 km
B*
8.2843e-4
RAAN
222.9058°
Arg perigee
279.3348°
Mean anomaly
80.7260°
Rev number
4,587

§ Raw data

ENSHI XIDA SHANQUAN1 64962U 25160A   26145.19709339  .00033233  00000+0  82843-3 0  99912 64962  97.3620 222.9058 0005642 279.3348  80.7260 15.40134644 45876

JSON: /api/v1/satellites/64962 · /tle

For live sub-satellite position, see the globe view (requires WebGL).

§ Visibility from observer

Set your observer location to see the next 7 days of passes ≥ 10°. The values pass through the URL so the page stays shareable.

No JS? Fill the form by hand. The geolocation button needs JavaScript.